Date String (YYYY-MM-DD hh:mm:ss) UTC,Instrument flags,absolute air pressure of the measurement (hPa),sample flow rate (lpm),inlet stack bypass flow (lpm),air temperature of the measurement (°C),ambient temperature measured by the external sensor (°C),aerosol sample conditioner tube jacket temperature (°C),OPC LED temperature (°C),internal box temperature (°C),relative humidity of the measurement (%),span deviation,mass concentration of particles derived from Lorenz-Mie calculation of OPC scattering (μg/m³),mass concentration of particles derived from Lorenz-Mie calculation of OPC scattering (μg/m³),mass concentration of particles derived from Lorenz-Mie calculation of OPC scattering (μg/m³)
DateTimeUTC,F1_M11,P_M11,Q1_M11,Q2_M11,T1_M11,T2_M11,T3_M11,T4_M11,T5_M11,U1_M11,ZSPAN_M11,X0_M11,X2_M11,X1_M11
2024-03-29 04:00:00,SystemResetWarning,0821.3,5.00,000.00,022.7,021.8,000.0,031.3,024.6,13.2,0000.0,0007.64,0002.78,0001.59
2024-03-29 04:01:00,SystemResetWarning,0821.3,5.00,000.00,022.7,021.8,000.0,031.3,024.6,13.2,0000.0,0007.90,0002.77,0001.60
2024-03-29 04:02:00,SystemResetWarning,0821.3,5.00,000.00,022.7,021.9,000.0,031.3,024.6,13.2,0000.0,0007.20,0002.74,0001.61
2024-03-29 04:03:00,SystemResetWarning,0821.3,5.00,000.00,022.7,021.9,000.0,031.3,024.6,13.2,0000.0,0006.98,0002.80,0001.61
2024-03-29 04:04:00,SystemResetWarning,0821.3,5.00,000.00,022.7,021.9,000.0,031.3,024.6,13.3,0000.0,0007.14,0002.90,0001.62
2024-03-29 04:05:00,SystemResetWarning,0821.3,5.00,000.00,022.7,021.9,000.0,031.3,024.6,13.3,0000.0,0006.64,0002.90,0001.61
2024-03-29 04:06:00,SystemResetWarning,0821.3,5.00,000.00,022.7,021.9,000.0,031.3,024.6,13.2,0000.0,0006.81,0002.87,0001.60
2024-03-29 04:07:00,SystemResetWarning,0821.3,5.00,000.00,022.7,021.9,000.0,031.3,024.6,13.3,0000.0,0007.23,0002.85,0001.59
2024-03-29 04:08:00,SystemResetWarning,0821.3,4.99,000.00,022.7,021.8,000.0,031.3,024.6,13.3,0000.0,0007.24,0002.84,0001.58
2024-03-29 04:09:00,SystemResetWarning,0821.3,5.00,000.00,022.7,021.8,000.0,031.3,024.6,13.6,0000.0,0007.36,0002.85,0001.58
2024-03-29 04:10:00,SystemResetWarning,0821.3,5.00,000.00,022.7,021.8,000.0,031.3,024.6,13.8,0000.0,0007.28,0002.84,0001.58
2024-03-29 04:11:00,SystemResetWarning,0821.3,5.00,000.00,022.7,021.8,000.0,031.3,024.6,13.8,0000.0,0007.05,0002.82,0001.58
2024-03-29 04:12:00,SystemResetWarning,0821.3,5.00,000.00,022.7,021.7,000.0,031.3,024.5,13.9,0000.0,0006.61,0002.78,0001.58
2024-03-29 04:13:00,SystemResetWarning,0821.3,5.00,000.00,022.7,021.7,000.0,031.3,024.5,13.9,0000.0,0007.32,0002.80,0001.58
2024-03-29 04:14:00,SystemResetWarning,0821.2,5.00,000.00,022.7,021.7,000.0,031.3,024.5,14.1,0000.0,0007.80,0002.85,0001.60
2024-03-29 04:15:00,SystemResetWarning,0821.2,5.00,000.00,022.7,021.7,000.0,031.3,024.5,14.2,0000.0,0008.04,0002.84,0001.60
2024-03-29 04:16:00,SystemResetWarning,0821.2,5.01,000.00,022.7,021.7,000.0,031.3,024.5,14.2,0000.0,0007.99,0002.78,0001.60
2024-03-29 04:17:00,SystemResetWarning,0821.2,4.99,000.00,022.7,021.6,000.0,031.3,024.5,14.3,0000.0,0007.84,0002.80,0001.61
2024-03-29 04:18:00,SystemResetWarning,0821.2,4.99,000.00,022.6,021.6,000.0,031.3,024.5,14.1,0000.0,0007.47,0002.80,0001.62
2024-03-29 04:19:00,SystemResetWarning,0821.2,5.00,000.00,022.6,021.6,000.0,031.3,024.4,14.2,0000.0,0007.45,0002.79,0001.64
2024-03-29 04:20:00,SystemResetWarning,0821.1,5.00,000.00,022.6,021.6,000.0,031.3,024.4,14.2,0000.0,0007.39,0002.81,0001.64
2024-03-29 04:21:00,SystemResetWarning,0821.1,5.00,000.00,022.6,021.6,000.0,031.3,024.4,14.2,0000.0,0007.49,0002.80,0001.65
2024-03-29 04:22:00,SystemResetWarning,0821.3,5.00,000.00,022.6,021.6,000.0,031.3,024.4,14.2,0000.0,0008.00,0002.84,0001.66
2024-03-29 04:23:00,SystemResetWarning,0821.2,5.01,000.00,022.6,021.6,000.0,031.2,024.4,14.1,0000.0,0007.83,0002.84,0001.67
2024-03-29 04:24:00,SystemResetWarning,0821.1,4.99,000.00,022.6,021.6,000.0,031.2,024.4,14.1,0000.0,0007.65,0002.84,0001.68
2024-03-29 04:25:00,SystemResetWarning,0821.1,4.99,000.00,022.6,021.5,000.0,031.2,024.4,14.0,0000.0,0007.70,0002.85,0001.68
2024-03-29 04:26:00,SystemResetWarning,0821.1,5.00,000.00,022.6,021.5,000.0,031.2,024.4,14.0,0000.0,0007.25,0002.76,0001.67
2024-03-29 04:27:00,SystemResetWarning,0821.1,5.00,000.00,022.6,021.5,000.0,031.2,024.4,13.9,0000.0,0007.19,0002.73,0001.67
2024-03-29 04:28:00,SystemResetWarning,0821.1,5.00,000.00,022.6,021.5,000.0,031.2,024.4,14.1,0000.0,0007.19,0002.73,0001.67
2024-03-29 04:29:00,SystemResetWarning,0821.1,4.99,000.00,022.6,021.5,000.0,031.2,024.4,14.1,0000.0,0007.29,0002.74,0001.68
2024-03-29 04:30:00,SystemResetWarning,0821.1,5.00,000.00,022.5,021.5,000.0,031.2,024.4,14.1,0000.0,0007.28,0002.76,0001.68
2024-03-29 04:31:00,SystemResetWarning,0820.9,5.00,000.00,022.5,021.5,000.0,031.2,024.4,14.1,0000.0,0007.30,0002.76,0001.67
2024-03-29 04:32:00,SystemResetWarning,0820.9,5.01,000.00,022.5,021.5,000.0,031.2,024.4,13.9,0000.0,0007.08,0002.78,0001.68
2024-03-29 04:33:00,SystemResetWarning,0821.0,5.00,000.00,022.5,021.5,000.0,031.2,024.3,14.2,0000.0,0006.29,0002.81,0001.68
2024-03-29 04:34:00,SystemResetWarning,0821.1,4.99,000.00,022.5,021.5,000.0,031.2,024.3,13.9,0000.0,0006.27,0002.79,0001.68
2024-03-29 04:35:00,SystemResetWarning,0821.0,4.99,000.00,022.5,021.5,000.0,031.2,024.3,13.8,0000.0,0006.06,0002.79,0001.67
2024-03-29 04:36:00,SystemResetWarning,0821.0,5.00,000.00,022.5,021.5,000.0,031.2,024.3,14.0,0000.0,0005.31,0002.73,0001.67
2024-03-29 04:37:00,SystemResetWarning,0821.1,5.00,000.00,022.5,021.5,000.0,031.2,024.3,13.9,0000.0,0005.28,0002.80,0001.66
2024-03-29 04:38:00,SystemResetWarning,0821.2,5.01,000.00,022.5,021.5,000.0,031.2,024.3,13.8,0000.0,0005.31,0002.83,0001.67
2024-03-29 04:39:00,SystemResetWarning,0821.0,5.00,000.00,022.5,021.5,000.0,031.1,024.3,13.7,0000.0,0005.39,0002.84,0001.67
2024-03-29 04:40:00,SystemResetWarning,0820.9,5.00,000.00,022.5,021.5,000.0,031.1,024.3,13.6,0000.0,0005.92,0002.88,0001.67
2024-03-29 04:41:00,SystemResetWarning,0821.0,5.00,000.00,022.5,021.5,000.0,031.1,024.3,13.6,0000.0,0006.23,0002.93,0001.68
2024-03-29 04:42:00,SystemResetWarning,0820.9,4.99,000.00,022.5,021.5,000.0,031.1,024.3,13.8,0000.0,0007.38,0002.93,0001.68
2024-03-29 04:43:00,SystemResetWarning,0821.1,5.00,000.00,022.5,021.5,000.0,031.1,024.3,13.8,0000.0,0007.80,0002.92,0001.68
2024-03-29 04:44:00,SystemResetWarning,0821.0,4.99,000.00,022.5,021.5,000.0,031.1,024.3,13.8,0000.0,0007.77,0002.88,0001.67
2024-03-29 04:45:00,SystemResetWarning,0820.9,4.99,000.00,022.5,021.5,000.0,031.1,024.3,13.8,0000.0,0007.94,0002.98,0001.66
2024-03-29 04:46:00,SystemResetWarning,0820.9,5.01,000.00,022.5,021.5,000.0,031.1,024.3,13.8,0000.0,0008.10,0003.00,0001.65
2024-03-29 04:47:00,SystemResetWarning,0821.0,5.01,000.00,022.4,021.5,000.0,031.1,024.3,13.9,0000.0,0008.32,0003.11,0001.66
2024-03-29 04:48:00,SystemResetWarning,0820.8,4.99,000.00,022.4,021.5,000.0,031.1,024.3,13.8,0000.0,0008.22,0003.06,0001.68
2024-03-29 04:49:00,SystemResetWarning,0820.8,4.99,000.00,022.4,021.6,000.0,031.1,024.3,13.7,0000.0,0008.32,0003.10,0001.68
2024-03-29 04:50:00,SystemResetWarning,0820.7,4.99,000.00,022.4,021.6,000.0,031.1,024.3,13.7,0000.0,0008.36,0003.13,0001.69
2024-03-29 04:51:00,SystemResetWarning,0820.8,5.00,000.00,022.4,021.6,000.0,031.1,024.3,13.8,0000.0,0008.12,0003.11,0001.69
2024-03-29 04:52:00,SystemResetWarning,0820.8,5.01,000.00,022.5,021.6,000.0,031.1,024.3,13.8,0000.0,0007.91,0003.08,0001.68
2024-03-29 04:53:00,SystemResetWarning,0820.8,5.02,000.00,022.5,021.6,000.0,031.1,024.3,13.8,0000.0,0006.88,0003.06,0001.70
2024-03-29 04:54:00,SystemResetWarning,0820.8,4.99,000.00,022.5,021.5,000.0,031.1,024.3,13.7,0000.0,0006.36,0003.10,0001.71
2024-03-29 04:55:00,SystemResetWarning,0820.7,4.99,000.00,022.4,021.6,000.0,031.1,024.3,13.6,0000.0,0006.49,0003.12,0001.71
2024-03-29 04:56:00,SystemResetWarning,0820.7,4.99,000.00,022.4,021.6,000.0,031.0,024.3,13.8,0000.0,0006.58,0003.13,0001.72
2024-03-29 04:57:00,SystemResetWarning,0820.7,5.01,000.00,022.5,021.6,000.0,031.0,024.3,13.9,0000.0,0006.39,0003.14,0001.73
2024-03-29 04:58:00,SystemResetWarning,0820.6,5.00,000.00,022.5,021.6,000.0,031.0,024.3,14.0,0000.0,0006.10,0003.11,0001.73
2024-03-29 04:59:00,SystemResetWarning,0820.6,5.00,000.00,022.5,021.6,000.0,031.0,024.3,14.0,0000.0,0006.11,0003.10,0001.72
